| time (UTC) | temp F | wind direction | speed MPH | gust MPH | rain 1hr in | rain 24hr in | rain mn in | humidity % | barometer mb |
| 20260506153058 | 67 | 220 | 8.0 | 15.0 | 0.00 | 0.00 | 0.00 | 72 | 1006.5 |
| 20260506152553 | 67 | 240 | 8.0 | 18.0 | 0.00 | 0.00 | 0.00 | 71 | 1006.6 |
| 20260506152053 | 68 | 235 | 6.0 | 18.0 | 0.00 | 0.00 | 0.00 | 70 | 1006.6 |
| 20260506151602 | 68 | 199 | 10.0 | 26.0 | 0.00 | 0.00 | 0.00 | 67 | 1006.6 |
| 20260506151052 | 69 | 196 | 12.0 | 26.0 | 0.00 | 0.00 | 0.00 | 67 | 1006.6 |
| 20260506150555 | 69 | 234 | 9.0 | 23.0 | 0.00 | 0.00 | 0.00 | 67 | 1006.6 |
| 20260506150100 | 69 | 224 | 11.0 | 23.0 | 0.00 | 0.00 | 0.00 | 66 | 1006.4 |
| 20260506145553 | 69 | 226 | 10.0 | 22.0 | 0.00 | 0.00 | 0.00 | 66 | 1006.3 |
| 20260506145055 | 69 | 235 | 8.0 | 19.0 | 0.00 | 0.00 | 0.00 | 66 | 1006.4 |
| 20260506144607 | 69 | 252 | 11.0 | 19.0 | 0.00 | 0.00 | 0.00 | 65 | 1006.7 |
| 20260506144052 | 69 | 221 | 9.0 | 19.0 | 0.00 | 0.00 | 0.00 | 66 | 1006.7 |
| 20260506143552 | 69 | 212 | 9.0 | 19.0 | 0.00 | 0.00 | 0.00 | 65 | 1006.7 |
| 20260506143057 | 69 | 201 | 8.0 | 22.0 | 0.00 | 0.00 | 0.00 | 64 | 1006.7 |
| 20260506142556 | 69 | 221 | 9.0 | 22.0 | 0.00 | 0.00 | 0.00 | 64 | 1006.7 |
| 20260506142055 | 69 | 221 | 8.0 | 23.0 | 0.00 | 0.00 | 0.00 | 64 | 1006.6 |
| 20260506141556 | 69 | 221 | 10.0 | 25.0 | 0.00 | 0.00 | 0.00 | 64 | 1006.6 |
| 20260506141053 | 69 | 212 | 10.0 | 25.0 | 0.00 | 0.00 | 0.00 | 64 | 1006.6 |
| 20260506140556 | 69 | 169 | 11.0 | 25.0 | 0.00 | 0.00 | 0.00 | 64 | 1006.5 |
| 20260506140058 | 69 | 201 | 9.0 | 20.0 | 0.00 | 0.00 | 0.00 | 64 | 1006.5 |
| 20260506135552 | 69 | 225 | 8.0 | 17.0 | 0.00 | 0.00 | 0.00 | 64 | 1006.5 |
| 20260506135057 | 69 | 243 | 9.0 | 17.0 | 0.00 | 0.00 | 0.00 | 65 | 1006.5 |
| 20260506134600 | 69 | 227 | 7.0 | 15.0 | 0.00 | 0.00 | 0.00 | 66 | 1006.5 |
| 20260506134052 | 69 | 202 | 8.0 | 14.0 | 0.00 | 0.00 | 0.00 | 67 | 1006.4 |
| 20260506133554 | 68 | 204 | 7.0 | 15.0 | 0.00 | 0.00 | 0.00 | 67 | 1006.4 |
| 20260506133101 | 68 | 222 | 8.0 | 15.0 | 0.00 | 0.00 | 0.00 | 67 | 1006.4 |
| 20260506132552 | 68 | 235 | 7.0 | 17.0 | 0.00 | 0.00 | 0.00 | 67 | 1006.4 |
| 20260506132056 | 68 | 208 | 6.0 | 18.0 | 0.00 | 0.00 | 0.00 | 67 | 1006.5 |
| 20260506131557 | 68 | 207 | 10.0 | 18.0 | 0.00 | 0.00 | 0.00 | 67 | 1006.4 |
| 20260506131056 | 68 | 221 | 8.0 | 21.0 | 0.00 | 0.00 | 0.00 | 67 | 1006.6 |
| 20260506130556 | 68 | 190 | 8.0 | 21.0 | 0.00 | 0.00 | 0.00 | 68 | 1006.7 |
| 20260506130059 | 68 | 192 | 10.0 | 22.0 | 0.00 | 0.00 | 0.00 | 68 | 1006.7 |
| 20260506125554 | 68 | 203 | 11.0 | 22.0 | 0.00 | 0.00 | 0.00 | 68 | 1006.8 |
| 20260506125056 | 68 | 235 | 9.0 | 20.0 | 0.00 | 0.00 | 0.00 | 68 | 1006.7 |
| 20260506124557 | 68 | 228 | 7.0 | 19.0 | 0.00 | 0.00 | 0.00 | 68 | 1006.5 |
| 20260506124057 | 68 | 229 | 8.0 | 21.0 | 0.00 | 0.00 | 0.00 | 69 | 1006.5 |
| 20260506123556 | 68 | 220 | 8.0 | 21.0 | 0.00 | 0.00 | 0.00 | 69 | 1006.6 |
| 20260506123056 | 67 | 214 | 9.0 | 18.0 | 0.00 | 0.00 | 0.00 | 70 | 1006.7 |
| 20260506122556 | 67 | 169 | 8.0 | 18.0 | 0.00 | 0.00 | 0.00 | 70 | 1006.6 |
| 20260506122057 | 67 | 181 | 8.0 | 17.0 | 0.00 | 0.00 | 0.00 | 70 | 1006.5 |
| 20260506121554 | 67 | 184 | 8.0 | 17.0 | 0.00 | 0.00 | 0.00 | 71 | 1006.7 |
| 20260506121055 | 67 | 195 | 7.0 | 15.0 | 0.00 | 0.00 | 0.00 | 71 | 1006.4 |
| 20260506120555 | 66 | 210 | 5.0 | 15.0 | 0.00 | 0.00 | 0.00 | 72 | 1006.6 |
| 20260506120058 | 66 | 165 | 7.0 | 20.0 | 0.00 | 0.00 | 0.00 | 72 | 1006.6 |
| 20260506115558 | 65 | 219 | 8.0 | 20.0 | 0.00 | 0.00 | 0.00 | 73 | 1006.6 |
| 20260506115054 | 65 | 163 | 7.0 | 19.0 | 0.00 | 0.00 | 0.00 | 73 | 1006.6 |
| 20260506114557 | 65 | 169 | 7.0 | 19.0 | 0.00 | 0.00 | 0.00 | 73 | 1006.7 |
| 20260506114054 | 65 | 206 | 9.0 | 19.0 | 0.00 | 0.00 | 0.00 | 73 | 1006.7 |
| 20260506113557 | 65 | 190 | 7.0 | 20.0 | 0.00 | 0.00 | 0.00 | 73 | 1006.7 |
| 20260506113100 | 65 | 217 | 5.0 | 20.0 | 0.00 | 0.00 | 0.00 | 73 | 1006.6 |
| 20260506112554 | 65 | 227 | 4.0 | 18.0 | 0.00 | 0.00 | 0.00 | 73 | 1006.5 |
| 20260506112054 | 65 | 228 | 5.0 | 18.0 | 0.00 | 0.00 | 0.00 | 73 | 1006.7 |
| 20260506111559 | 65 | 192 | 6.0 | 16.0 | 0.00 | 0.00 | 0.00 | 73 | 1006.6 |
| 20260506111056 | 65 | 214 | 6.0 | 16.0 | 0.00 | 0.00 | 0.00 | 74 | 1006.6 |
| 20260506110554 | 65 | 215 | 7.0 | 16.0 | 0.00 | 0.00 | 0.00 | 74 | 1006.6 |
| 20260506110055 | 65 | 181 | 7.0 | 16.0 | 0.00 | 0.00 | 0.00 | 74 | 1006.6 |
| 20260506105551 | 65 | 226 | 6.0 | 16.0 | 0.00 | 0.00 | 0.00 | 74 | 1006.6 |
| 20260506105058 | 65 | 161 | 7.0 | 18.0 | 0.00 | 0.00 | 0.00 | 75 | 1006.6 |
| 20260506104559 | 65 | 263 | 7.0 | 18.0 | 0.00 | 0.00 | 0.00 | 75 | 1006.5 |
| 20260506104054 | 65 | 217 | 4.0 | 13.0 | 0.00 | 0.00 | 0.00 | 75 | 1006.6 |
| 20260506103554 | 65 | 184 | 4.0 | 16.0 | 0.00 | 0.00 | 0.00 | 76 | 1006.6 |
| 20260506103055 | 64 | 233 | 7.0 | 17.0 | 0.00 | 0.00 | 0.00 | 76 | 1006.7 |
| 20260506102554 | 64 | 207 | 6.0 | 17.0 | 0.00 | 0.00 | 0.00 | 76 | 1006.6 |
| 20260506102054 | 64 | 189 | 5.0 | 16.0 | 0.00 | 0.00 | 0.00 | 76 | 1006.5 |
| 20260506101552 | 64 | 200 | 5.0 | 14.0 | 0.00 | 0.00 | 0.00 | 77 | 1006.5 |
| 20260506101056 | 64 | 211 | 7.0 | 15.0 | 0.00 | 0.00 | 0.00 | 77 | 1006.6 |
| 20260506100555 | 64 | 206 | 5.0 | 15.0 | 0.00 | 0.00 | 0.00 | 77 | 1006.7 |
| 20260506100104 | 64 | 238 | 6.0 | 15.0 | 0.00 | 0.00 | 0.00 | 76 | 1006.6 |
| 20260506095556 | 65 | 223 | 4.0 | 14.0 | 0.00 | 0.00 | 0.00 | 76 | 1006.7 |
| 20260506095055 | 65 | 186 | 7.0 | 13.0 | 0.00 | 0.00 | 0.00 | 76 | 1006.7 |
| 20260506094612 | 65 | 184 | 4.0 | 16.0 | 0.00 | 0.00 | 0.00 | 76 | 1006.6 |
| 20260506094057 | 65 | 186 | 6.0 | 16.0 | 0.00 | 0.00 | 0.00 | 76 | 1006.4 |
| 20260506093557 | 65 | 190 | 5.0 | 14.0 | 0.00 | 0.00 | 0.00 | 76 | 1006.4 |
| 20260506093058 | 65 | 235 | 7.0 | 14.0 | 0.00 | 0.00 | 0.00 | 76 | 1006.4 |
| 20260506092554 | 65 | 259 | 3.0 | 13.0 | 0.00 | 0.00 | 0.00 | 76 | 1006.4 |
| 20260506092055 | 65 | 213 | 4.0 | 15.0 | 0.00 | 0.00 | 0.00 | 76 | 1006.4 |
| 20260506091555 | 65 | 240 | 7.0 | 15.0 | 0.00 | 0.00 | 0.00 | 76 | 1006.4 |
| 20260506091056 | 65 | 196 | 3.0 | 17.0 | 0.00 | 0.00 | 0.00 | 76 | 1006.4 |
| 20260506090554 | 65 | 237 | 6.0 | 17.0 | 0.00 | 0.00 | 0.00 | 76 | 1006.5 |
| 20260506090100 | 65 | 213 | 5.0 | 13.0 | 0.00 | 0.00 | 0.00 | 75 | 1006.6 |
| 20260506085554 | 65 | 223 | 5.0 | 12.0 | 0.00 | 0.00 | 0.00 | 75 | 1006.5 |
| 20260506085055 | 65 | 157 | 5.0 | 12.0 | 0.00 | 0.00 | 0.00 | 75 | 1006.6 |
| 20260506084601 | 65 | 233 | 4.0 | 15.0 | 0.00 | 0.00 | 0.00 | 75 | 1006.6 |
| 20260506084057 | 66 | 236 | 6.0 | 15.0 | 0.00 | 0.00 | 0.00 | 75 | 1006.7 |
| 20260506083556 | 66 | 178 | 2.0 | 13.0 | 0.00 | 0.00 | 0.00 | 75 | 1006.7 |
| 20260506083059 | 66 | 0 | 6.0 | 13.0 | 0.00 | 0.00 | 0.00 | 75 | 1006.7 |
| 20260506082555 | 66 | 158 | 5.0 | 14.0 | 0.00 | 0.00 | 0.00 | 75 | 1006.7 |
| 20260506082056 | 66 | 227 | 5.0 | 14.0 | 0.00 | 0.00 | 0.00 | 75 | 1006.7 |
| 20260506081556 | 66 | 248 | 5.0 | 11.0 | 0.00 | 0.00 | 0.00 | 75 | 1006.8 |
| 20260506081059 | 66 | 180 | 6.0 | 13.0 | 0.00 | 0.00 | 0.00 | 75 | 1006.8 |
| 20260506080557 | 66 | 242 | 4.0 | 13.0 | 0.00 | 0.00 | 0.00 | 75 | 1006.8 |
| 20260506080108 | 66 | 196 | 5.0 | 15.0 | 0.00 | 0.00 | 0.00 | 75 | 1006.8 |
| 20260506073116 | 66 | 194 | 6.0 | 13.0 | 0.00 | 0.00 | 0.00 | 74 | 1006.7 |
| 20260506072556 | 66 | 229 | 5.0 | 13.0 | 0.00 | 0.00 | 0.00 | 74 | 1006.7 |
| 20260506072056 | 67 | 198 | 5.0 | 13.0 | 0.00 | 0.00 | 0.00 | 74 | 1006.9 |
| 20260506071600 | 67 | 192 | 5.0 | 13.0 | 0.00 | 0.00 | 0.00 | 74 | 1006.8 |
| 20260506071058 | 67 | 196 | 4.0 | 16.0 | 0.00 | 0.00 | 0.00 | 74 | 1006.9 |
| 20260506070557 | 67 | 217 | 5.0 | 16.0 | 0.00 | 0.00 | 0.00 | 74 | 1007.0 |
| 20260506062056 | 68 | 206 | 5.0 | 12.0 | 0.00 | 0.00 | 0.00 | 72 | 1007.1 |
| 20260506061616 | 68 | 240 | 6.0 | 12.0 | 0.00 | 0.00 | 0.00 | 72 | 1007.1 |
| 20260506061056 | 68 | 184 | 5.0 | 12.0 | 0.00 | 0.00 | 0.00 | 72 | 1007.1 |
| 20260506060556 | 68 | 186 | 5.0 | 14.0 | 0.00 | 0.00 | 0.00 | 72 | 1007.2 |
| 20260506060108 | 68 | 209 | 5.0 | 14.0 | 0.00 | 0.00 | 0.00 | 72 | 1007.2 |
| 20260506051055 | 68 | 206 | 7.0 | 20.0 | 0.00 | 0.00 | 0.00 | 70 | 1007.6 |
| 20260506050555 | 68 | 202 | 7.0 | 20.0 | 0.00 | 0.00 | 0.00 | 70 | 1007.5 |
| 20260506045056 | 69 | 203 | 5.0 | 15.0 | 0.00 | 0.00 | 0.00 | 69 | 1007.6 |
| 20260506044555 | 69 | 212 | 6.0 | 15.0 | 0.00 | 0.00 | 0.00 | 69 | 1007.7 |
| 20260506044056 | 69 | 225 | 7.0 | 13.0 | 0.00 | 0.00 | 0.00 | 69 | 1007.7 |
| 20260506043556 | 69 | 230 | 5.0 | 15.0 | 0.00 | 0.00 | 0.00 | 68 | 1007.7 |
| 20260506043056 | 69 | 197 | 7.0 | 17.0 | 0.00 | 0.00 | 0.00 | 68 | 1007.8 |
| 20260506042556 | 69 | 249 | 6.0 | 17.0 | 0.00 | 0.00 | 0.00 | 68 | 1007.7 |
| 20260506042055 | 69 | 171 | 8.0 | 17.0 | 0.00 | 0.00 | 0.00 | 67 | 1007.7 |
| 20260506041559 | 69 | 222 | 7.0 | 17.0 | 0.00 | 0.00 | 0.00 | 67 | 1007.7 |
| 20260506041056 | 69 | 227 | 7.0 | 17.0 | 0.00 | 0.00 | 0.00 | 67 | 1007.6 |
| 20260506040556 | 69 | 242 | 5.0 | 15.0 | 0.00 | 0.00 | 0.00 | 67 | 1007.6 |
| 20260506040058 | 69 | 242 | 7.0 | 17.0 | 0.00 | 0.00 | 0.00 | 66 | 1007.6 |
| 20260506035556 | 69 | 202 | 7.0 | 17.0 | 0.00 | 0.00 | 0.00 | 66 | 1007.5 |
| 20260506035057 | 69 | 239 | 9.0 | 21.0 | 0.00 | 0.00 | 0.00 | 66 | 1007.6 |
| 20260506034557 | 69 | 233 | 7.0 | 21.0 | 0.00 | 0.00 | 0.00 | 65 | 1007.5 |
| 20260506034056 | 70 | 225 | 5.0 | 14.0 | 0.00 | 0.00 | 0.00 | 65 | 1007.5 |
| 20260506033555 | 70 | 178 | 3.0 | 12.0 | 0.00 | 0.00 | 0.00 | 65 | 1007.4 |
| 20260506033109 | 70 | 227 | 5.0 | 15.0 | 0.00 | 0.00 | 0.00 | 64 | 1007.4 |
| 20260506032556 | 70 | 205 | 6.0 | 18.0 | 0.00 | 0.00 | 0.00 | 64 | 1007.4 |
| 20260506032056 | 70 | 223 | 9.0 | 18.0 | 0.00 | 0.00 | 0.00 | 64 | 1007.4 |
| 20260506031556 | 70 | 171 | 6.0 | 17.0 | 0.00 | 0.00 | 0.00 | 63 | 1007.4 |
| 20260506031055 | 70 | 244 | 6.0 | 17.0 | 0.00 | 0.00 | 0.00 | 63 | 1007.4 |
| 20260506030555 | 70 | 209 | 8.0 | 17.0 | 0.00 | 0.00 | 0.00 | 63 | 1007.5 |
| 20260506025556 | 71 | 238 | 4.0 | 17.0 | 0.00 | 0.00 | 0.00 | 62 | 1007.5 |
| 20260506025100 | 71 | 220 | 8.0 | 17.0 | 0.00 | 0.00 | 0.00 | 61 | 1007.4 |
| 20260506024613 | 71 | 221 | 5.0 | 15.0 | 0.00 | 0.00 | 0.00 | 61 | 1007.5 |
| 20260506024056 | 71 | 209 | 5.0 | 17.0 | 0.00 | 0.00 | 0.00 | 61 | 1007.5 |
| 20260506023556 | 71 | 208 | 5.0 | 17.0 | 0.00 | 0.00 | 0.00 | 60 | 1007.5 |
| 20260506023103 | 71 | 192 | 6.0 | 17.0 | 0.00 | 0.00 | 0.00 | 60 | 1007.5 |
| 20260506022555 | 71 | 189 | 6.0 | 17.0 | 0.00 | 0.00 | 0.00 | 60 | 1007.5 |
| 20260506022055 | 71 | 194 | 7.0 | 17.0 | 0.00 | 0.00 | 0.00 | 59 | 1007.5 |
| 20260506021600 | 71 | 223 | 6.0 | 12.0 | 0.00 | 0.00 | 0.00 | 59 | 1007.4 |
| 20260506021059 | 71 | 198 | 3.0 | 19.0 | 0.00 | 0.00 | 0.00 | 59 | 1007.5 |
| 20260506020555 | 71 | 204 | 7.0 | 19.0 | 0.00 | 0.00 | 0.00 | 59 | 1007.3 |
| 20260506020056 | 71 | 198 | 7.0 | 17.0 | 0.00 | 0.00 | 0.00 | 59 | 1007.5 |
| 20260506015600 | 72 | 251 | 5.0 | 17.0 | 0.00 | 0.00 | 0.00 | 59 | 1007.4 |
| 20260506015056 | 72 | 234 | 4.0 | 14.0 | 0.00 | 0.00 | 0.00 | 59 | 1007.4 |
| 20260506014554 | 72 | 195 | 4.0 | 14.0 | 0.00 | 0.00 | 0.00 | 59 | 1007.3 |
| 20260506014100 | 72 | 196 | 5.0 | 13.0 | 0.00 | 0.00 | 0.00 | 58 | 1007.2 |
| 20260506013556 | 72 | 159 | 4.0 | 15.0 | 0.00 | 0.00 | 0.00 | 58 | 1007.1 |
| 20260506013101 | 72 | 207 | 6.0 | 15.0 | 0.00 | 0.00 | 0.00 | 58 | 1007.2 |
| 20260506012556 | 72 | 211 | 2.0 | 16.0 | 0.00 | 0.00 | 0.00 | 58 | 1007.2 |
| 20260506012059 | 72 | 163 | 5.0 | 18.0 | 0.00 | 0.00 | 0.00 | 58 | 1007.0 |
| 20260506011624 | 72 | 191 | 5.0 | 19.0 | 0.00 | 0.00 | 0.00 | 58 | 1007.1 |
| 20260506011056 | 72 | 258 | 6.0 | 19.0 | 0.00 | 0.00 | 0.00 | 57 | 1007.1 |
| 20260506010556 | 73 | 188 | 7.0 | 17.0 | 0.00 | 0.00 | 0.00 | 57 | 1007.0 |
| 20260506010115 | 73 | 186 | 4.0 | 15.0 | 0.00 | 0.00 | 0.00 | 56 | 1007.0 |
| 20260506005557 | 74 | 250 | 3.0 | 15.0 | 0.00 | 0.00 | 0.00 | 54 | 1007.0 |
| 20260506005059 | 74 | 184 | 4.0 | 12.0 | 0.00 | 0.00 | 0.00 | 53 | 1007.0 |
| 20260506004555 | 74 | 162 | 6.0 | 15.0 | 0.00 | 0.00 | 0.00 | 52 | 1006.9 |
| 20260506004055 | 75 | 180 | 5.0 | 15.0 | 0.00 | 0.00 | 0.00 | 51 | 1006.8 |
| 20260506003555 | 75 | 169 | 4.0 | 15.0 | 0.00 | 0.00 | 0.00 | 50 | 1006.7 |
| 20260506003058 | 75 | 207 | 4.0 | 14.0 | 0.00 | 0.00 | 0.00 | 49 | 1006.7 |
| 20260506002555 | 76 | 169 | 4.0 | 14.0 | 0.00 | 0.00 | 0.00 | 49 | 1006.7 |
| 20260506002057 | 76 | 197 | 6.0 | 14.0 | 0.00 | 0.00 | 0.00 | 48 | 1006.6 |
| 20260506001557 | 76 | 251 | 7.0 | 14.0 | 0.00 | 0.00 | 0.00 | 47 | 1006.5 |
| 20260506001056 | 77 | 193 | 5.0 | 14.0 | 0.00 | 0.00 | 0.00 | 46 | 1006.4 |
| 20260506000558 | 78 | 171 | 5.0 | 17.0 | 0.00 | 0.00 | 0.00 | 44 | 1006.4 |
| 20260506000100 | 78 | 165 | 2.0 | 17.0 | 0.00 | 0.00 | 0.00 | 43 | 1006.4 |
| 20260505235556 | 78 | 219 | 5.0 | 17.0 | 0.00 | 0.00 | 0.00 | 42 | 1006.3 |
| 20260505235056 | 79 | 238 | 6.0 | 19.0 | 0.00 | 0.00 | 0.00 | 42 | 1006.3 |
| 20260505234555 | 79 | 224 | 7.0 | 19.0 | 0.00 | 0.00 | 0.00 | 41 | 1006.2 |
| 20260505234055 | 79 | 109 | 7.0 | 18.0 | 0.00 | 0.00 | 0.00 | 41 | 1006.2 |
| 20260505233556 | 79 | 172 | 7.0 | 14.0 | 0.00 | 0.00 | 0.00 | 41 | 1006.2 |
| 20260505233055 | 79 | 215 | 6.0 | 20.0 | 0.00 | 0.00 | 0.00 | 41 | 1006.0 |
| 20260505232556 | 79 | 175 | 8.0 | 22.0 | 0.00 | 0.00 | 0.00 | 40 | 1005.9 |
| 20260505232056 | 80 | 243 | 7.0 | 23.0 | 0.00 | 0.00 | 0.00 | 41 | 1006.0 |
| 20260505231555 | 80 | 229 | 7.0 | 23.0 | 0.00 | 0.00 | 0.00 | 40 | 1005.8 |
| 20260505231055 | 80 | 233 | 8.0 | 26.0 | 0.00 | 0.00 | 0.00 | 40 | 1005.9 |
| 20260505230555 | 80 | 225 | 8.0 | 26.0 | 0.00 | 0.00 | 0.00 | 40 | 1005.9 |
| 20260505225557 | 80 | 188 | 8.0 | 25.0 | 0.00 | 0.00 | 0.00 | 40 | 1005.8 |
| 20260505225055 | 80 | 216 | 9.0 | 25.0 | 0.00 | 0.00 | 0.00 | 40 | 1005.8 |
| 20260505224554 | 80 | 248 | 8.0 | 27.0 | 0.00 | 0.00 | 0.00 | 40 | 1005.9 |
| 20260505224057 | 80 | 215 | 11.0 | 27.0 | 0.00 | 0.00 | 0.00 | 40 | 1005.9 |
| 20260505223556 | 80 | 234 | 12.0 | 26.0 | 0.00 | 0.00 | 0.00 | 40 | 1006.0 |
| 20260505223100 | 80 | 202 | 12.0 | 26.0 | 0.00 | 0.00 | 0.00 | 40 | 1006.0 |
| 20260505222556 | 81 | 205 | 10.0 | 26.0 | 0.00 | 0.00 | 0.00 | 40 | 1005.9 |
| 20260505222058 | 82 | 227 | 9.0 | 23.0 | 0.00 | 0.00 | 0.00 | 39 | 1005.9 |
| 20260505221603 | 82 | 194 | 8.0 | 23.0 | 0.00 | 0.00 | 0.00 | 39 | 1005.9 |
| 20260505221055 | 82 | 161 | 9.0 | 23.0 | 0.00 | 0.00 | 0.00 | 38 | 1005.9 |
| 20260505220555 | 82 | 222 | 5.0 | 22.0 | 0.00 | 0.00 | 0.00 | 38 | 1005.8 |
| 20260505220108 | 82 | 237 | 10.0 | 25.0 | 0.00 | 0.00 | 0.00 | 38 | 1005.6 |
| 20260505215555 | 82 | 222 | 13.0 | 25.0 | 0.00 | 0.00 | 0.00 | 37 | 1005.7 |
| 20260505215057 | 82 | 242 | 11.0 | 29.0 | 0.00 | 0.00 | 0.00 | 35 | 1005.7 |
| 20260505214556 | 83 | 198 | 10.0 | 29.0 | 0.00 | 0.00 | 0.00 | 35 | 1005.7 |
| 20260505214056 | 83 | 148 | 10.0 | 24.0 | 0.00 | 0.00 | 0.00 | 35 | 1005.7 |
| 20260505213556 | 83 | 262 | 11.0 | 24.0 | 0.00 | 0.00 | 0.00 | 34 | 1005.6 |
| 20260505213053 | 83 | 200 | 10.0 | 22.0 | 0.00 | 0.00 | 0.00 | 34 | 1005.8 |
| 20260505212556 | 83 | 223 | 11.0 | 27.0 | 0.00 | 0.00 | 0.00 | 34 | 1005.6 |
| 20260505212056 | 82 | 242 | 15.0 | 29.0 | 0.00 | 0.00 | 0.00 | 33 | 1005.7 |
| 20260505211555 | 83 | 198 | 16.0 | 29.0 | 0.00 | 0.00 | 0.00 | 32 | 1005.6 |
| 20260505211056 | 83 | 202 | 10.0 | 22.0 | 0.00 | 0.00 | 0.00 | 33 | 1005.4 |
| 20260505210555 | 83 | 244 | 11.0 | 27.0 | 0.00 | 0.00 | 0.00 | 33 | 1005.5 |
| 20260505210055 | 83 | 207 | 14.0 | 27.0 | 0.00 | 0.00 | 0.00 | 32 | 1005.3 |
| 20260505205556 | 83 | 223 | 12.0 | 23.0 | 0.00 | 0.00 | 0.00 | 32 | 1005.4 |
| 20260505205056 | 83 | 221 | 11.0 | 34.0 | 0.00 | 0.00 | 0.00 | 32 | 1005.4 |
| 20260505204600 | 83 | 182 | 14.0 | 34.0 | 0.00 | 0.00 | 0.00 | 31 | 1005.4 |
| 20260505204056 | 83 | 200 | 12.0 | 25.0 | 0.00 | 0.00 | 0.00 | 30 | 1005.4 |
| 20260505203559 | 83 | 225 | 12.0 | 25.0 | 0.00 | 0.00 | 0.00 | 30 | 1005.3 |
| 20260505203106 | 83 | 235 | 13.0 | 24.0 | 0.00 | 0.00 | 0.00 | 30 | 1005.4 |
| 20260505202555 | 83 | 229 | 12.0 | 26.0 | 0.00 | 0.00 | 0.00 | 29 | 1005.4 |
| 20260505202058 | 83 | 226 | 14.0 | 32.0 | 0.00 | 0.00 | 0.00 | 29 | 1005.4 |
| 20260505201554 | 83 | 215 | 14.0 | 32.0 | 0.00 | 0.00 | 0.00 | 29 | 1005.3 |
| 20260505201056 | 83 | 195 | 17.0 | 31.0 | 0.00 | 0.00 | 0.00 | 30 | 1005.3 |
| 20260505200556 | 83 | 237 | 16.0 | 31.0 | 0.00 | 0.00 | 0.00 | 31 | 1005.3 |
| 20260505200057 | 83 | 236 | 16.0 | 31.0 | 0.00 | 0.00 | 0.00 | 31 | 1005.4 |
| 20260505195551 | 84 | 226 | 13.0 | 30.0 | 0.00 | 0.00 | 0.00 | 31 | 1005.4 |
| 20260505195051 | 84 | 195 | 15.0 | 24.0 | 0.00 | 0.00 | 0.00 | 31 | 1005.4 |
| 20260505194559 | 84 | 210 | 12.0 | 22.0 | 0.00 | 0.00 | 0.00 | 33 | 1005.4 |
| 20260505194051 | 84 | 209 | 12.0 | 27.0 | 0.00 | 0.00 | 0.00 | 32 | 1005.4 |
| 20260505193553 | 83 | 200 | 11.0 | 27.0 | 0.00 | 0.00 | 0.00 | 33 | 1005.3 |
| 20260505193053 | 83 | 169 | 13.0 | 25.0 | 0.00 | 0.00 | 0.00 | 34 | 1005.6 |
| 20260505192551 | 83 | 246 | 14.0 | 24.0 | 0.00 | 0.00 | 0.00 | 35 | 1005.5 |
| 20260505192052 | 83 | 202 | 13.0 | 24.0 | 0.00 | 0.00 | 0.00 | 36 | 1005.6 |
| 20260505191554 | 83 | 230 | 11.0 | 22.0 | 0.00 | 0.00 | 0.00 | 37 | 1005.7 |
| 20260505191052 | 83 | 180 | 12.0 | 25.0 | 0.00 | 0.00 | 0.00 | 36 | 1005.9 |
| 20260505190551 | 82 | 202 | 15.0 | 25.0 | 0.00 | 0.00 | 0.00 | 38 | 1005.7 |
| 20260505190053 | 83 | 217 | 14.0 | 24.0 | 0.00 | 0.00 | 0.00 | 36 | 1005.8 |
| 20260505185551 | 83 | 204 | 9.0 | 16.0 | 0.00 | 0.00 | 0.00 | 38 | 1005.9 |
| 20260505185055 | 83 | 221 | 7.0 | 21.0 | 0.00 | 0.00 | 0.00 | 38 | 1006.1 |
| 20260505184557 | 82 | 163 | 11.0 | 21.0 | 0.00 | 0.00 | 0.00 | 38 | 1006.2 |
| 20260505184055 | 83 | 209 | 9.0 | 19.0 | 0.00 | 0.00 | 0.00 | 38 | 1006.2 |
| 20260505183554 | 82 | 263 | 9.0 | 18.0 | 0.00 | 0.00 | 0.00 | 39 | 1006.3 |
| 20260505183056 | 83 | 192 | 7.0 | 16.0 | 0.00 | 0.00 | 0.00 | 39 | 1006.4 |
| 20260505182555 | 83 | 209 | 8.0 | 16.0 | 0.00 | 0.00 | 0.00 | 40 | 1006.4 |
| 20260505182051 | 82 | 177 | 9.0 | 19.0 | 0.00 | 0.00 | 0.00 | 40 | 1006.3 |
| 20260505181555 | 82 | 196 | 10.0 | 22.0 | 0.00 | 0.00 | 0.00 | 41 | 1006.5 |
| 20260505181051 | 82 | 223 | 8.0 | 22.0 | 0.00 | 0.00 | 0.00 | 40 | 1006.5 |
| 20260505180550 | 82 | 153 | 10.0 | 23.0 | 0.00 | 0.00 | 0.00 | 39 | 1006.6 |
| 20260505180056 | 82 | 208 | 10.0 | 23.0 | 0.00 | 0.00 | 0.00 | 38 | 1006.6 |
| 20260505175550 | 82 | 231 | 9.0 | 19.0 | 0.00 | 0.00 | 0.00 | 40 | 1006.7 |
| 20260505175050 | 81 | 184 | 9.0 | 19.0 | 0.00 | 0.00 | 0.00 | 40 | 1006.7 |
| 20260505174554 | 81 | 184 | 10.0 | 19.0 | 0.00 | 0.00 | 0.00 | 41 | 1006.7 |
| 20260505174052 | 81 | 205 | 7.0 | 20.0 | 0.00 | 0.00 | 0.00 | 41 | 1006.8 |
| 20260505173551 | 80 | 288 | 10.0 | 20.0 | 0.00 | 0.00 | 0.00 | 42 | 1006.8 |
| 20260505173053 | 80 | 229 | 12.0 | 20.0 | 0.00 | 0.00 | 0.00 | 41 | 1006.8 |
| 20260505172558 | 80 | 155 | 11.0 | 20.0 | 0.00 | 0.00 | 0.00 | 42 | 1006.8 |
| 20260505172054 | 80 | 269 | 8.0 | 18.0 | 0.00 | 0.00 | 0.00 | 42 | 1006.8 |
| 20260505171557 | 80 | 265 | 8.0 | 18.0 | 0.00 | 0.00 | 0.00 | 42 | 1006.9 |
| 20260505171054 | 80 | 225 | 9.0 | 20.0 | 0.00 | 0.00 | 0.00 | 42 | 1007.0 |
| 20260505170553 | 79 | 230 | 10.0 | 20.0 | 0.00 | 0.00 | 0.00 | 43 | 1007.1 |
| 20260505170054 | 79 | 224 | 8.0 | 18.0 | 0.00 | 0.00 | 0.00 | 43 | 1007.0 |
| 20260505165551 | 78 | 218 | 10.0 | 18.0 | 0.00 | 0.00 | 0.00 | 44 | 1007.2 |
| 20260505165056 | 78 | 206 | 11.0 | 19.0 | 0.00 | 0.00 | 0.00 | 44 | 1007.2 |
| 20260505164600 | 78 | 239 | 7.0 | 19.0 | 0.00 | 0.00 | 0.00 | 44 | 1007.2 |
| 20260505164056 | 78 | 211 | 5.0 | 15.0 | 0.00 | 0.00 | 0.00 | 45 | 1007.1 |
| 20260505163555 | 78 | 186 | 6.0 | 16.0 | 0.00 | 0.00 | 0.00 | 45 | 1007.3 |
| 20260505163055 | 78 | 220 | 9.0 | 16.0 | 0.00 | 0.00 | 0.00 | 46 | 1007.2 |
| 20260505162556 | 78 | 233 | 7.0 | 16.0 | 0.00 | 0.00 | 0.00 | 46 | 1007.2 |
| 20260505162056 | 77 | 185 | 7.0 | 16.0 | 0.00 | 0.00 | 0.00 | 46 | 1007.4 |
| 20260505161558 | 77 | 212 | 6.0 | 18.0 | 0.00 | 0.00 | 0.00 | 47 | 1007.4 |
| 20260505161056 | 77 | 189 | 7.0 | 18.0 | 0.00 | 0.00 | 0.00 | 47 | 1007.3 |
| 20260505160559 | 77 | 155 | 8.0 | 17.0 | 0.00 | 0.00 | 0.00 | 46 | 1007.3 |